SQ5DCP-1 Weather Reports


time (UTC)temp
C
wind
direction
speed
KPH
gust
KPH
rain 1hr
cm
rain 24hr
cm
rain mn
cm
humidity
%
barometer
mb
20260503182534 21 184 4.8 6.4 0.00 0.00 0.00 34 1015.6
20260503182031 21 186 4.8 4.8 0.00 0.00 0.00 33 1015.5
20260503181528 21 182 3.2 6.4 0.00 0.00 0.00 32 1015.3
20260503181027 22 184 3.2 6.4 0.00 0.00 0.00 32 1015.4
20260503180525 22 189 3.2 6.4 0.00 0.00 0.00 31 1015.4
20260503180024 22 182 3.2 11.3 0.00 0.00 0.00 31 1015.4
20260503175521 22 184 3.2 9.7 0.00 0.00 0.00 31 1015.3
20260503175019 22 187 3.2 4.8 0.00 0.00 0.00 30 1015.3
20260503174516 22 193 3.2 6.4 0.00 0.00 0.00 30 1015.2
20260503174034 22 187 3.2 6.4 0.00 0.00 0.00 30 1015.3
20260503173533 23 186 4.8 11.3 0.00 0.00 0.00 30 1015.2
20260503173031 23 183 3.2 11.3 0.00 0.00 0.00 29 1015.2
20260503172529 23 184 4.8 11.3 0.00 0.00 0.00 29 1015.3
20260503172219 23 192 4.8 6.4 0.00 0.00 0.00 28 1015.3
20260503172027 23 192 4.8 6.4 0.00 0.00 0.00 28 1015.3
20260503171525 23 192 3.2 9.7 0.00 0.00 0.00 28 1015.4
20260503171023 23 190 4.8 14.5 0.00 0.00 0.00 28 1015.3
20260503170521 23 193 4.8 11.3 0.00 0.00 0.00 27 1015.3
20260503150533 25 194 11.3 22.5 0.00 0.00 0.00 26 1015.9
20260503131018 26 198 9.7 22.5 0.00 0.00 0.00 27 1017.1
20260503130517 26 246 9.7 20.9 0.00 0.00 0.00 27 1017.1
20260503110530 25 219 9.7 22.5 0.00 0.00 0.00 27 1018.3
20260503081525 21 240 9.7 22.5 0.00 0.00 0.00 37 1019.7
20260503081024 21 196 12.9 27.4 0.00 0.00 0.00 37 1019.8
20260503080521 20 183 16.1 30.6 0.00 0.00 0.00 38 1019.9
20260503072527 18 211 6.4 17.7 0.00 0.00 0.00 45 1019.8
20260503072025 18 215 8.0 25.7 0.00 0.00 0.00 45 1019.9
20260503071523 18 243 8.0 17.7 0.00 0.00 0.00 45 1020.0
20260503071021 18 236 8.0 20.9 0.00 0.00 0.00 45 1020.0
20260503070519 17 247 9.7 24.1 0.00 0.00 0.00 45 1019.9
20260503055032 13 191 6.4 12.9 0.00 0.00 0.00 58 1019.8
20260503054530 13 209 4.8 14.5 0.00 0.00 0.00 59 1019.9
20260503054028 12 216 4.8 14.5 0.00 0.00 0.00 60 1020.0
20260503053526 12 235 3.2 9.7 0.00 0.00 0.00 61 1020.0
20260503053024 12 222 3.2 11.3 0.00 0.00 0.00 63 1020.0
20260503052522 12 205 3.2 9.7 0.00 0.00 0.00 63 1019.9
20260503052020 11 200 3.2 6.4 0.00 0.00 0.00 64 1019.9
20260503051519 11 188 3.2 9.7 0.00 0.00 0.00 65 1019.9
20260503051049 11 185 3.2 6.4 0.00 0.00 0.00 66 1019.9
20260503051016 11 185 3.2 6.4 0.00 0.00 0.00 66 1019.9
20260503050535 10 183 0.0 4.8 0.00 0.00 0.00 66 1019.9
20260503050033 10 200 0.0 3.2 0.00 0.00 0.00 66 1020.0
20260503045531 10 188 1.6 3.2 0.00 0.00 0.00 66 1020.0
20260503045029 10 191 1.6 4.8 0.00 0.00 0.00 67 1020.0
20260503044527 10 192 1.6 3.2 0.00 0.00 0.00 67 1020.0
20260503044048 9 181 160.9 3.2 0.00 0.00 0.00 68 1019.9
20260503044026 9 181 1.6 3.2 0.00 0.00 0.00 68 1019.9
20260503043523 9 0.0 0.0 0.00 0.00 0.00 67 1020.0
20260503043022 9 0.0 0.0 0.00 0.00 0.00 67 1020.0
20260503042520 8 0.0 0.0 0.00 0.00 0.00 67 1019.9
20260503042049 8 0.0 0.0 0.00 0.00 0.00 68 1019.9
20260503042018 8 0.0 0.0 0.00 0.00 0.00 68 1019.9
20260503041516 8 0.0 0.0 0.00 0.00 0.00 68 1019.9
20260503041034 8 0.0 0.0 0.00 0.00 0.00 68 1019.8
20260503040532 8 192 0.0 1.6 0.00 0.00 0.00 68 1019.8
20260503040030 8 0.0 0.0 0.00 0.00 0.00 67 1019.9
20260503035528 8 0.0 0.0 0.00 0.00 0.00 67 1019.8
20260503035026 8 0.0 0.0 0.00 0.00 0.00 67 1019.8
20260503034524 8 186 0.0 1.6 0.00 0.00 0.00 67 1019.8
20260503034022 8 0.0 0.0 0.00 0.00 0.00 67 1019.8
20260503033520 8 0.0 0.0 0.00 0.00 0.00 67 1019.7
20260503033019 8 0.0 0.0 0.00 0.00 0.00 67 1019.8
20260503032517 8 0.0 0.0 0.00 0.00 0.00 67 1019.8
20260503032035 8 0.0 0.0 0.00 0.00 0.00 67 1019.8
20260503031533 8 0.0 0.0 0.00 0.00 0.00 67 1019.7
20260503031031 8 0.0 0.0 0.00 0.00 0.00 67 1019.7
20260503030529 8 0.0 0.0 0.00 0.00 0.00 67 1019.7
20260503030027 8 0.0 0.0 0.00 0.00 0.00 67 1019.7
20260503025525 8 0.0 0.0 0.00 0.00 0.00 66 1019.7
20260503025024 8 0.0 0.0 0.00 0.00 0.00 66 1019.7
20260503024521 8 0.0 0.0 0.00 0.00 0.00 66 1019.7
20260503024050 8 199 0.0 3.2 0.00 0.00 0.00 66 1019.6
20260503024019 8 199 0.0 3.2 0.00 0.00 0.00 66 1019.6
20260503023518 8 0.0 0.0 0.00 0.00 0.00 66 1019.7
20260503023036 8 0.0 0.0 0.00 0.00 0.00 66 1019.7
20260503022533 8 0.0 0.0 0.00 0.00 0.00 66 1019.8
20260503022031 8 0.0 0.0 0.00 0.00 0.00 66 1019.7
20260503021529 8 0.0 0.0 0.00 0.00 0.00 66 1019.8
20260503021028 8 0.0 0.0 0.00 0.00 0.00 66 1019.7
20260503020526 8 0.0 0.0 0.00 0.00 0.00 66 1019.8
20260503020025 9 0.0 0.0 0.00 0.00 0.00 66 1019.7
20260503015522 9 0.0 0.0 0.00 0.00 0.00 66 1019.7
20260503015020 9 0.0 0.0 0.00 0.00 0.00 66 1019.7
20260503014518 9 0.0 0.0 0.00 0.00 0.00 66 1019.8
20260503014022 9 0.0 0.0 0.00 0.00 0.00 66 1019.8
20260503013535 9 0.0 0.0 0.00 0.00 0.00 66 1019.8
20260503013044 9 0.0 0.0 0.00 0.00 0.00 65 1019.9
20260503012518 9 0.0 0.0 0.00 0.00 0.00 65 1019.9
20260503012050 9 0.0 0.0 0.00 0.00 0.00 65 1020.0
20260503012016 9 0.0 0.0 0.00 0.00 0.00 65 1020.0
20260503011534 9 0.0 0.0 0.00 0.00 0.00 65 1020.0
20260503011032 9 0.0 0.0 0.00 0.00 0.00 65 1020.0
20260503010531 10 0.0 0.0 0.00 0.00 0.00 65 1020.0
20260503010028 10 0.0 0.0 0.00 0.00 0.00 65 1019.9
20260503005527 10 0.0 0.0 0.00 0.00 0.00 65 1019.9
20260503005025 10 0.0 0.0 0.00 0.00 0.00 65 1019.9
20260503004523 10 0.0 0.0 0.00 0.00 0.00 65 1020.0
20260503004021 10 0.0 0.0 0.00 0.00 0.00 65 1019.9
20260503003521 10 0.0 0.0 0.00 0.00 0.00 64 1019.9
20260503003054 10 0.0 0.0 0.00 0.00 0.00 64 1019.9
20260503003018 10 0.0 0.0 0.00 0.00 0.00 64 1019.9
20260503002516 10 0.0 0.0 0.00 0.00 0.00 64 1019.9
20260503002034 10 0.0 0.0 0.00 0.00 0.00 64 1019.9
20260503001532 10 0.0 0.0 0.00 0.00 0.00 64 1019.9
20260503001031 10 0.0 0.0 0.00 0.00 0.00 64 1020.0
20260503000528 10 0.0 0.0 0.00 0.00 0.00 64 1020.0
20260503000027 10 0.0 0.0 0.00 0.00 0.00 63 1020.0
20260502235525 11 231 0.0 1.6 0.00 0.00 0.00 63 1020.1
20260502235023 11 231 1.6 3.2 0.00 0.00 0.00 63 1020.0
20260502234521 11 238 1.6 3.2 0.00 0.00 0.00 63 1020.1
20260502234050 11 232 0.0 3.2 0.00 0.00 0.00 63 1020.0
20260502234019 11 232 0.0 3.2 0.00 0.00 0.00 63 1020.0
20260502233518 11 250 1.6 3.2 0.00 0.00 0.00 63 1020.1
20260502233047 11 236 1.6 4.8 0.00 0.00 0.00 63 1020.1
20260502233016 11 236 1.6 4.8 0.00 0.00 0.00 63 1020.1
20260502232534 11 233 1.6 4.8 0.00 0.00 0.00 63 1020.0
20260502232032 11 231 1.6 3.2 0.00 0.00 0.00 63 1020.0
20260502231531 11 224 1.6 3.2 0.00 0.00 0.00 62 1020.1
20260502231030 11 233 1.6 4.8 0.00 0.00 0.00 62 1020.1
20260502230527 11 233 1.6 3.2 0.00 0.00 0.00 61 1020.2
20260502230026 11 230 0.0 1.6 0.00 0.00 0.00 61 1020.2
20260502225523 12 217 0.0 3.2 0.00 0.00 0.00 61 1020.2
20260502225021 12 0.0 0.0 0.00 0.00 0.00 60 1020.2
20260502224519 12 0.0 0.0 0.00 0.00 0.00 60 1020.3
20260502224017 12 0.0 0.0 0.00 0.00 0.00 60 1020.3
20260502223516 12 0.0 0.0 0.00 0.00 0.00 60 1020.2
20260502223034 12 210 0.0 1.6 0.00 0.00 0.00 60 1020.3
20260502222533 12 212 0.0 1.6 0.00 0.00 0.00 60 1020.3
20260502222031 12 215 0.0 1.6 0.00 0.00 0.00 59 1020.3
20260502221529 12 207 0.0 1.6 0.00 0.00 0.00 59 1020.3
20260502221027 12 203 0.0 1.6 0.00 0.00 0.00 59 1020.3
20260502220525 12 230 0.0 1.6 0.00 0.00 0.00 59 1020.4
20260502220023 12 225 0.0 3.2 0.00 0.00 0.00 59 1020.3
20260502215521 12 212 0.0 1.6 0.00 0.00 0.00 58 1020.4
20260502215020 12 207 0.0 3.2 0.00 0.00 0.00 58 1020.4
20260502214517 13 225 0.0 1.6 0.00 0.00 0.00 58 1020.4
20260502214048 13 207 0.0 1.6 0.00 0.00 0.00 57 1020.5
20260502214016 13 207 0.0 1.6 0.00 0.00 0.00 57 1020.5
20260502213534 13 226 0.0 1.6 0.00 0.00 0.00 57 1020.5
20260502213032 13 227 0.0 3.2 0.00 0.00 0.00 57 1020.4
20260502212531 13 0.0 0.0 0.00 0.00 0.00 57 1020.5
20260502212028 13 0.0 0.0 0.00 0.00 0.00 56 1020.6
20260502211526 13 214 0.0 1.6 0.00 0.00 0.00 56 1020.5
20260502211024 13 215 0.0 1.6 0.00 0.00 0.00 56 1020.7
20260502210522 13 209 0.0 1.6 0.00 0.00 0.00 55 1020.6
20260502210020 13 209 0.0 1.6 0.00 0.00 0.00 55 1020.6
20260502205518 14 199 0.0 1.6 0.00 0.00 0.00 54 1020.7
20260502205016 14 235 0.0 3.2 0.00 0.00 0.00 54 1020.7
20260502204534 14 0.0 0.0 0.00 0.00 0.00 53 1020.8
20260502204032 15 0.0 0.0 0.00 0.00 0.00 53 1020.7
20260502203530 15 203 0.0 1.6 0.00 0.00 0.00 53 1020.8
20260502203028 15 0.0 0.0 0.00 0.00 0.00 52 1020.8
20260502202526 15 0.0 0.0 0.00 0.00 0.00 52 1020.8
20260502202024 15 216 0.0 1.6 0.00 0.00 0.00 52 1020.8
20260502201523 15 209 1.6 3.2 0.00 0.00 0.00 51 1020.8
20260502201020 16 194 1.6 4.8 0.00 0.00 0.00 50 1020.8
20260502200518 16 199 1.6 3.2 0.00 0.00 0.00 49 1020.8
20260502200049 16 201 1.6 3.2 0.00 0.00 0.00 49 1020.8
20260502200017 16 201 1.6 3.2 0.00 0.00 0.00 49 1020.8
20260502195534 16 188 3.2 4.8 0.00 0.00 0.00 48 1020.8
20260502195032 16 198 1.6 4.8 0.00 0.00 0.00 48 1020.8
20260502194530 16 198 3.2 6.4 0.00 0.00 0.00 48 1020.8
20260502194028 16 183 3.2 6.4 0.00 0.00 0.00 48 1020.8
20260502193526 16 189 4.8 11.3 0.00 0.00 0.00 47 1020.8
20260502193024 16 186 4.8 6.4 0.00 0.00 0.00 47 1020.9
20260502192523 16 187 4.8 6.4 0.00 0.00 0.00 47 1020.8
20260502192020 16 186 4.8 9.7 0.00 0.00 0.00 47 1020.9
20260502191518 17 187 3.2 6.4 0.00 0.00 0.00 47 1020.9
20260502191048 17 193 3.2 6.4 0.00 0.00 0.00 47 1020.9
20260502191016 17 193 3.2 6.4 0.00 0.00 0.00 47 1020.9
20260502190535 17 190 3.2 4.8 0.00 0.00 0.00 46 1020.9
20260502190033 17 202 1.6 3.2 0.00 0.00 0.00 46 1020.8
20260502185531 17 213 0.0 1.6 0.00 0.00 0.00 45 1020.8
20260502185029 17 225 0.0 1.6 0.00 0.00 0.00 45 1020.7
20260502184528 18 210 0.0 1.6 0.00 0.00 0.00 44 1020.7
20260502184027 18 210 0.0 1.6 0.00 0.00 0.00 44 1020.8
20260502183524 18 232 0.0 1.6 0.00 0.00 0.00 43 1020.6
20260502183022 18 236 0.0 1.6 0.00 0.00 0.00 42 1020.7